Weather History for Dyersburg, TN

Change the Weather History Date:

Wednesday, June 26, 2013

  Actual Average Record
Temperature  
Mean Temperature 82 °F -  
Max Temperature 91 °F 84 °F 96 °F (2010)
Min Temperature 73 °F 67 °F 62 °F (2001)
Cooling Degree Days 17    
Growing Degree Days 32 (Base 50)    
Moisture  
Dew Point 65 °F    
Average Humidity 54    
Maximum Humidity 69    
Minimum Humidity 41    
Precipitation  
Precipitation 0.00 in - - ()
Sea Level Pressure  
Sea Level Pressure 29.91 in    
Wind  
Wind Speed 7 mph (SSW)    
Max Wind Speed 20 mph    
Max Gust Speed 29 mph    
Visibility 10 miles    
Events      
Averages and records for this station are not official NWS values.
T = Trace of Precipitation, MM = Missing Value Source: NWS Daily Summary

Daily Weather History Graph

Daily Weather History Graph

Search for Another Location

Airport:

Trip Planner

Search our weather history database for the weather conditions in past years. The results will help you decide how hot, cold, wet, or windy it might be!

Date:

Astronomy

Jun. 26, 2013 Rise Set
Actual Time 5:42 AM CDT 8:18 PM CDT
Civil Twilight 5:12 AM CDT 8:48 PM CDT
Nautical Twilight 4:34 AM CDT 9:26 PM CDT
Astronomical Twilight 3:53 AM CDT 10:07 PM CDT
Moon 10:50 PM CDT (6/26) 9:27 AM CDT (6/26)
Length of Visible Light 15h 36m
Length of Day
14h 35m
Waning Gibbous, 85% of the Moon is Illuminated
Jun 26
Waning Gibbous
Jun 29
Last Quarter
Jul 8
New
Jul 15
First Quarter
Jul 22
Full

Hourly Weather History & Observations

Time (CDT) Temp. Heat Index Dew Point Humidity Pressure Visibility Wind Dir Wind Speed Gust Speed Precip Events Conditions
12:15 AM 78.8 °F - 62.6 °F 57% 29.97 in 10.0 mi SSE 3.5 mph - N/A   Clear
12:35 AM 78.8 °F - 62.6 °F 57% 29.96 in 10.0 mi SE 3.5 mph - N/A   Clear
12:55 AM 78.8 °F - 62.6 °F 57% 29.96 in 10.0 mi SSE 3.5 mph - N/A   Clear
1:15 AM 78.8 °F - 62.6 °F 57% 29.96 in 10.0 mi SSE 3.5 mph - N/A   Clear
1:35 AM 78.8 °F - 62.6 °F 57% 29.97 in 10.0 mi South 3.5 mph - N/A   Clear
1:55 AM 77.0 °F - 62.6 °F 61% 29.97 in 10.0 mi South 3.5 mph - N/A   Clear
2:15 AM 75.2 °F - 62.6 °F 65% 29.96 in 10.0 mi South 3.5 mph - N/A   Clear
2:35 AM 75.2 °F - 62.6 °F 65% 29.95 in 10.0 mi South 3.5 mph - N/A   Clear
2:55 AM 75.2 °F - 62.6 °F 65% 29.95 in 10.0 mi South 3.5 mph - N/A   Clear
3:15 AM 75.2 °F - 62.6 °F 65% 29.95 in 10.0 mi Calm Calm - N/A   Clear
3:35 AM 75.2 °F - 62.6 °F 65% 29.95 in 10.0 mi SSE 4.6 mph - N/A   Clear
3:55 AM 75.2 °F - 62.6 °F 65% 29.94 in 10.0 mi South 4.6 mph - N/A   Clear
4:15 AM 75.2 °F - 62.6 °F 65% 29.95 in 10.0 mi South 5.8 mph - N/A   Clear
4:35 AM 75.2 °F - 62.6 °F 65% 29.94 in 10.0 mi SSE 5.8 mph - N/A   Clear
4:55 AM 73.4 °F - 62.6 °F 69% 29.95 in 10.0 mi South 4.6 mph - N/A   Clear
5:15 AM 73.4 °F - 62.6 °F 69% 29.96 in 10.0 mi South 4.6 mph - N/A   Clear
5:35 AM 73.4 °F - 62.6 °F 69% 29.96 in 10.0 mi South 5.8 mph - N/A   Clear
5:55 AM 73.4 °F - 62.6 °F 69% 29.96 in 10.0 mi South 3.5 mph - N/A   Clear
6:15 AM 73.4 °F - 62.6 °F 69% 29.97 in 10.0 mi South 4.6 mph - N/A   Clear
6:35 AM 75.2 °F - 62.6 °F 65% 29.97 in 10.0 mi South 5.8 mph - N/A   Clear
6:55 AM 75.2 °F - 64.4 °F 69% 29.97 in 10.0 mi South 5.8 mph - N/A   Clear
7:15 AM 78.8 °F - 64.4 °F 61% 29.98 in 10.0 mi SSW 5.8 mph - N/A   Clear
7:55 AM 80.6 °F 82.7 °F 66.2 °F 61% 29.97 in 10.0 mi SSW 6.9 mph - N/A   Clear
8:15 AM 82.4 °F 84.6 °F 66.2 °F 58% 29.97 in 10.0 mi South 6.9 mph - N/A   Clear
8:35 AM 82.4 °F 84.6 °F 66.2 °F 58% 29.97 in 10.0 mi SSW 6.9 mph - N/A   Clear
8:55 AM - - - N/A% 29.96 in 10.0 mi SSW 5.8 mph 18.4 mph N/A   Clear
9:15 AM 84.2 °F 86.6 °F 66.2 °F 55% 29.96 in 10.0 mi SW 12.7 mph 17.3 mph N/A   Partly Cloudy
9:35 AM 86.0 °F 89.4 °F 68.0 °F 55% 29.96 in 10.0 mi SSW 11.5 mph 20.7 mph N/A   Mostly Cloudy
9:55 AM 86.0 °F 89.4 °F 68.0 °F 55% 29.95 in 10.0 mi SW 13.8 mph 20.7 mph N/A   Scattered Clouds
10:35 AM 87.8 °F 90.4 °F 66.2 °F 49% 29.95 in 10.0 mi SSW 11.5 mph 19.6 mph N/A   Mostly Cloudy
10:55 AM 87.8 °F 90.4 °F 66.2 °F 49% 29.96 in 10.0 mi SW 12.7 mph 17.3 mph N/A   Overcast
11:15 AM 87.8 °F 90.4 °F 66.2 °F 49% 29.96 in 10.0 mi SW 12.7 mph 19.6 mph N/A   Mostly Cloudy
11:35 AM 89.6 °F 93.4 °F 68.0 °F 49% 29.96 in 10.0 mi SW 11.5 mph 20.7 mph N/A   Mostly Cloudy
11:55 AM 89.6 °F 93.4 °F 68.0 °F 49% 29.95 in 10.0 mi SW 13.8 mph 21.9 mph N/A   Mostly Cloudy
12:15 PM 89.6 °F 93.4 °F 68.0 °F 49% 29.94 in 10.0 mi SW 16.1 mph 26.5 mph N/A   Partly Cloudy
12:35 PM 87.8 °F 90.4 °F 66.2 °F 49% 29.93 in 10.0 mi SW 12.7 mph 26.5 mph N/A   Clear
12:55 PM 87.8 °F 90.4 °F 66.2 °F 49% 29.92 in 10.0 mi SW 10.4 mph 18.4 mph N/A   Clear
1:15 PM 89.6 °F 93.4 °F 68.0 °F 49% 29.92 in 8.0 mi SW 15.0 mph 26.5 mph N/A   Clear
1:35 PM 89.6 °F 93.4 °F 68.0 °F 49% 29.92 in 10.0 mi SW 10.4 mph 16.1 mph N/A   Clear
1:55 PM 89.6 °F 93.4 °F 68.0 °F 49% 29.90 in 10.0 mi SSW 16.1 mph 24.2 mph N/A   Clear
2:15 PM 89.6 °F 94.7 °F 69.8 °F 52% 29.90 in 10.0 mi SW 17.3 mph 25.3 mph N/A   Clear
2:35 PM 91.4 °F 95.4 °F 68.0 °F 46% 29.89 in 10.0 mi SW 19.6 mph 28.8 mph N/A   Clear
2:55 PM 91.4 °F 94.0 °F 66.2 °F 43% 29.89 in 10.0 mi SW 16.1 mph 27.6 mph N/A   Clear
3:15 PM 91.4 °F 94.0 °F 66.2 °F 43% 29.89 in 10.0 mi SW 16.1 mph 25.3 mph N/A   Clear
3:35 PM 91.4 °F 94.0 °F 66.2 °F 43% 29.88 in 10.0 mi SW 12.7 mph 23.0 mph N/A   Clear
3:55 PM 91.4 °F 94.0 °F 66.2 °F 43% 29.87 in 10.0 mi SW 11.5 mph 20.7 mph N/A   Clear
4:15 PM 91.4 °F 94.0 °F 66.2 °F 43% 29.86 in 10.0 mi SW 13.8 mph 19.6 mph N/A   Clear
4:35 PM 91.4 °F 94.0 °F 66.2 °F 43% 29.85 in 6.0 mi SW 13.8 mph 20.7 mph N/A   Clear
4:55 PM 91.4 °F 94.0 °F 66.2 °F 43% 29.84 in 10.0 mi SW 16.1 mph 21.9 mph N/A   Clear
5:15 PM 91.4 °F 94.0 °F 66.2 °F 43% 29.84 in 10.0 mi SW 12.7 mph 21.9 mph N/A   Clear
5:36 PM 91.4 °F 93.2 °F 64.4 °F 41% 29.84 in 10.0 mi SW 16.1 mph 19.6 mph N/A   Clear
5:55 PM 91.4 °F 93.2 °F 64.4 °F 41% 29.84 in 10.0 mi SW 11.5 mph 23.0 mph N/A   Clear
6:15 PM 91.4 °F 93.2 °F 64.4 °F 41% 29.85 in 10.0 mi SW 10.4 mph - N/A   Clear
6:35 PM 89.6 °F 91.1 °F 64.4 °F 43% 29.85 in 10.0 mi SW 10.4 mph 16.1 mph N/A   Clear
6:55 PM 89.6 °F 92.2 °F 66.2 °F 46% 29.84 in 10.0 mi SW 8.1 mph - N/A   Clear
7:15 PM 89.6 °F 92.2 °F 66.2 °F 46% 29.84 in 10.0 mi SSW 9.2 mph - N/A   Clear
7:35 PM 87.8 °F 90.4 °F 66.2 °F 49% 29.82 in 10.0 mi SW 8.1 mph - N/A   Clear
7:55 PM 87.8 °F 89.4 °F 64.4 °F 46% 29.83 in 10.0 mi SW 8.1 mph - N/A   Clear
8:15 PM 86.0 °F 87.3 °F 64.4 °F 48% 29.82 in 10.0 mi SSW 10.4 mph - N/A   Clear
8:36 PM 84.2 °F 85.6 °F 64.4 °F 51% 29.82 in 10.0 mi SW 10.4 mph - N/A   Clear
8:55 PM 84.2 °F 85.6 °F 64.4 °F 51% 29.84 in 10.0 mi SW 6.9 mph - N/A   Clear
9:15 PM 84.2 °F 85.6 °F 64.4 °F 51% 29.84 in 10.0 mi SW 9.2 mph - N/A   Clear
9:35 PM 84.2 °F 85.6 °F 64.4 °F 51% 29.84 in 10.0 mi SW 8.1 mph - N/A   Clear
9:55 PM 84.2 °F 85.6 °F 64.4 °F 51% 29.84 in 10.0 mi SW 6.9 mph - N/A   Clear
10:15 PM 82.4 °F 83.9 °F 64.4 °F 54% 29.84 in 10.0 mi SSW 5.8 mph - N/A   Clear
10:35 PM 82.4 °F 83.9 °F 64.4 °F 54% 29.83 in 10.0 mi SW 9.2 mph - N/A   Clear
10:55 PM 82.4 °F 83.9 °F 64.4 °F 54% 29.84 in 10.0 mi SW 9.2 mph 16.1 mph N/A   Clear
11:15 PM 82.4 °F 83.9 °F 64.4 °F 54% 29.85 in 10.0 mi SW 10.4 mph 16.1 mph N/A   Clear
11:35 PM 82.4 °F 84.6 °F 66.2 °F 58% 29.85 in 10.0 mi WSW 8.1 mph - N/A   Clear
11:55 PM 82.4 °F 84.6 °F 66.2 °F 58% 29.86 in 10.0 mi WSW 10.4 mph - N/A   Clear